Location: Akhali-Nichbisi
(41.8462°N, 44.5504°E)
Time: 05:23:24
(UTC+00:00)

Daily predictions for brighter satellites

Satellite Brightness Start Highest point End
(mag) Time Altitude Azimuth Time Altitude Azimuth Time Altitude Azimuth
SL-16 R/B 4.4 00:04:43 10° WNW 00:07:14 13° NW 00:09:44 10° NNW
USA 281 3.2 00:06:07 10° SSE 00:12:36 63° WSW 00:19:08 10° NNW
SeaSat 1 3.0 00:12:05 10° NNE 00:16:49 48° WNW 00:20:56 13° SW
Cosmos 372 Rocket 4.0 00:11:54 10° NNW 00:17:04 62° WSW 00:22:13 10° S
MSX 3.9 00:15:06 10° N 00:20:53 76° WNW 00:26:37 10° SSW
Cosmos 1242 Rocket 4.1 00:20:03 10° NW 00:22:40 19° W 00:24:27 14° SW
Cosmos 921 Rocket 4.0 00:21:26 14° SW 00:24:32 32° WNW 00:28:20 10° N
CZ-2D R/B 4.2 00:23:47 10° NNW 00:26:01 13° WNW 00:28:15 10° W
CZ-4B R/B 3.6 00:20:58 10° NNE 00:26:17 89° WNW 00:31:31 10° SSW
GPS 2-04 Rocket1 4.4 00:24:44 11° SSW 00:26:59 17° SSE 00:29:31 10° ESE
Resurs 1-4 Rocket 4.2 00:25:38 10° NW 00:27:45 12° WNW 00:29:51 10° W
Cosmos 2369 Rocket 3.4 00:24:13 10° NW 00:28:32 22° W 00:32:48 10° SSW
Cosmos 1655 Rocket 4.3 00:22:36 10° S 00:28:46 73° E 00:35:00 10° NNE
ADEOS Rocket 4.1 00:22:44 10° SSW 00:29:29 34° W 00:35:50 10° NNW
Cosmos 1271 Rocket 3.9 00:26:32 10° N 00:30:08 44° ENE 00:33:43 10° SSE
CZ-2C R/B 3.3 00:25:53 10° NNE 00:30:47 50° E 00:35:30 10° S
Cosmos 2266 Rocket 4.4 00:25:51 10° S 00:31:57 67° E 00:37:59 10° NNE
Alouette 2 Rocket 3.4 00:28:50 10° N 00:32:25 76° ENE 00:36:17 10° SSE
USA 307 3.1 00:30:10 12° SW 00:34:06 62° SE 00:38:18 10° ENE
SL-4 R/B 4.3 00:31:54 10° NW 00:34:17 17° N 00:36:37 10° NE
CREW DRAGON DEMO-1 DEB 4.5 00:32:58 10° WNW 00:34:57 20° NNW 00:36:56 10° NNE
Meteor 2-14 Rocket 4.5 00:30:21 10° SSW 00:36:24 75° W 00:42:33 10° N
NOSS 2-2 (D) 3.3 00:33:42 12° SW 00:36:48 56° NW 00:40:22 10° NNE
ALOS 3.9 00:34:27 10° NNE 00:38:43 34° E 00:42:57 10° SSE
Meteor 2-3 Rocket 4.0 00:36:11 10° SSW 00:41:38 51° WNW 00:47:05 10° N
PAYLOAD A 4.2 00:41:43 10° NNE 00:46:40 77° ESE 00:51:47 10° S
USA 308 2.9 00:45:20 10° SW 00:49:35 83° SE 00:53:51 10° NE
ADEOS II 4.0 00:48:43 10° NNW 00:51:48 16° WNW 00:54:54 10° W
Cosmos 2298 Rocket 4.0 00:47:14 10° NNW 00:52:33 71° WSW 00:57:50 10° S
Lacrosse 4 Rocket 1.3 00:49:12 10° NNW 00:53:18 80° WSW 00:57:20 10° SSE
